SCP
0 0 0 0 0 0 0 0 0 0 0 0 0 0 0 0 1 1 1 2 2 1 1 2 2 3 3 4 4 4 4 4 4 4 3 3 3 3 3 3 3 3 3
1 1 1 1 1 0 1 1 1 1 1 1 1 1 1 1 1 1 2 2 2 1 1 1 2 2 3 3 4 4 5 5 5 5 4 4 3 3 4 4 3 3 3
1 1 1 1 1 1 1 1 1 1 1 1 1 1 1 1 2 2 2 2 1 1 1 1 1 2 2 2 3 4 5 6 6 6 5 5 4 4 4 4 4 4 4
1 1 1 1 1 1 1 1 1 1 1 1 1 1 1 2 2 2 2 2 2 2 1 1 1 1 1 1 2 3 4 5 6 6 6 6 5 5 5 5 5 5 4
1 1 1 1 1 1 1 1 1 1 1 1 1 1 1 1 2 2 2 2 2 2 2 1 1 1 1 1 1 2 3 4 6 6 7 6 6 6 6 6 6 5 5
0 0 1 1 1 0 1 1 1 1 1 0 0 0 1 1 1 1 1 1 1 1 1 1 1 1 0 0 1 1 2 3 4 5 6 6 6 7 6 6 6 6 5
0 0 0 0 0 0 0 0 0 0 0 0 0 0 0 0 0 0 0 1 1 1 1 1 1 0 0 0 0 0 1 1 2 3 4 5 6 6 6 6 6 6 5
0 0 0 0 0 0 0 0 0 0 0 0 0 0 0 0 0 0 0 0 0 0 0 0 0 0 0 0 0 0 0 0 1 1 2 3 4 5 6 5 5 5 5
0 0 0 0 0 0 0 0 0 0 0 0 0 0 0 0 0 0 0 0 0 0 0 0 0 0 0 0 0 0 0 0 0 0 0 1 2 4 4 4 4 4 4
0 0 0 0 0 0 0 0 0 0 0 0 0 0 0 0 0 0 0 0 0 0 0 0 0 0 0 0 0 0 0 0 0 0 0 0 1 2 3 3 3 3 3
0 0 0 0 0 0 0 0 0 0 0 0 0 0 0 0 0 0 0 0 0 0 0 0 0 0 0 0 0 0 0 0 0 0 0 0 0 1 2 2 2 3 3
0 0 0 0 0 0 0 0 0 0 0 0 0 0 0 0 0 0 0 0 0 0 0 0 0 0 0 0 0 0 0 0 0 0 0 0 0 0 1 1 1 2 2
0 0 0 0 0 0 0 0 0 0 0 0 0 0 0 0 0 0 0 0 0 0 0 0 0 0 0 0 0 0 0 0 0 0 0 0 0 0 0 0 0 1 1
0 0 0 0 0 0 0 0 0 0 0 0 0 0 0 0 0 0 0 0 0 0 0 0 0 0 0 0 0 0 0 0 0 0 0 0 0 0 0 0 0 0 0
0 0 0 0 0 0 0 0 0 0 0 0 0 0 0 0 0 0 0 0 0 0 0 0 0 0 0 0 0 0 0 0 0 0 0 0 0 0 0 0 0 0 0
0 0 0 0 0 0 0 0 0 0 0 0 0 0 0 0 0 0 0 0 0 0 0 0 0 0 0 0 0 0 0 0 0 0 0 0 0 0 0 0 0 0 0
0 0 0 0 0 0 0 0 0 0 0 0 0 0 0 0 0 0 0 0 0 0 0 0 0 0 0 0 0 0 0 0 0 0 0 0 0 0 0 0 0 0 0
0 0 0 0 0 0 0 0 0 0 0 0 0 0 0 0 0 0 0 0 0 0 0 0 0 0 0 0 0 0 0 0 0 0 0 0 0 0 0 0 0 0 0
0 0 0 0 0 0 0 0 0 0 0 0 0 0 0 0 0 0 0 0 0 0 0 0 0 0 0 0 0 0 0 0 0 0 0 0 0 0 0 0 0 0 0
0 0 0 0 0 0 0 0 0 0 0 0 0 0 0 0 0 0 0 0 0 0 0 0 0 0 0 0 0 0 0 0 0 0 0 0 0 0 0 0 0 0 0
0 0 0 0 0 0 0 0 0 0 0 0 0 0 0 0 0 0 0 0 0 0 0 0 0 0 0 0 0 0 0 0 0 0 0 0 0 0 0 0 0 0 0
0 0 0 0 0 0 0 0 0 0 0 0 0 0 0 0 0 0 0 0 0 0 0 0 0 0 0 0 0 0 0 0 0 0 0 0 0 0 0 0 0 0 0
0 0 0 0 0 0 0 0 0 0 0 0 0 0 0 0 0 0 0 0 0 0 0 0 0 0 0 0 0 0 0 0 0 0 0 0 0 0 0 0 0 0 0
0 0 0 0 0 0 0 0 0 0 0 0 0 0 0 0 0 0 0 0 0 0 0 0 0 0 0 0 0 0 0 0 0 0 0 0 0 0 0 0 0 0 0
0 0 0 0 0 0 0 0 0 0 0 0 0 0 0 0 0 0 0 0 0 0 0 0 0 0 0 0 0 0 0 0 0 0 0 0 0 0 0 0 0 0 0
0 0 0 0 0 0 0 0 0 0 0 0 0 0 0 0 0 0 0 0 0 0 0 0 0 0 0 0 0 0 0 0 0 0 0 0 0 0 0 0 0 0 0
Wind_Speed
2 2 2 1 4 2 3 3 5 4 5 6 6 7 8 8 8 7 2 9 7 5 5 5 5 6 7 6 7 10 12 14 15 15 14 13 12 11 12 13 14 15 16
1 3 3 2 3 4 5 6 6 5 6 6 7 7 8 10 7 7 8 1 7 5 3 3 3 3 5 7 8 9 10 12 15 16 17 16 15 14 14 14 15 16 17
1 2 2 1 2 3 3 4 5 5 5 6 7 7 7 8 8 7 8 8 5 5 5 1 1 2 4 5 7 8 10 11 13 15 17 18 18 17 17 17 17 17 16
3 2 2 3 4 3 4 4 5 6 5 7 7 7 7 6 8 8 9 9 8 7 5 6 3 5 7 7 9 10 11 13 13 14 16 19 20 20 19 19 18 18 17
6 4 5 5 4 4 5 5 5 6 6 7 8 8 8 8 8 10 10 10 10 9 10 5 8 9 8 7 9 11 13 14 15 15 17 19 20 21 20 20 20 20 19
8 5 5 6 6 5 5 5 4 4 5 5 9 9 8 9 8 9 10 9 8 10 10 10 8 9 9 6 8 11 13 15 16 17 19 20 19 19 20 21 21 22 22
8 7 5 5 5 4 4 4 5 6 6 5 8 10 10 11 11 8 8 8 9 10 10 11 10 9 7 9 10 10 11 16 18 19 20 21 18 17 20 21 22 22 22
7 5 6 4 4 3 3 4 4 6 7 5 7 10 11 11 9 6 5 8 10 10 11 12 12 10 10 10 8 10 13 16 19 21 22 21 19 18 19 20 20 20 22
5 5 5 5 4 5 4 5 6 6 7 8 5 7 9 9 10 7 8 8 9 9 10 11 13 12 12 11 11 12 11 13 17 20 22 22 19 17 16 17 17 19 21
5 5 5 5 5 5 4 4 5 6 5 7 5 4 6 8 8 8 8 9 11 11 11 11 13 13 12 10 8 11 12 13 16 18 19 20 18 16 15 13 13 15 18
3 4 4 4 4 3 4 4 4 5 5 6 7 6 7 7 9 10 12 10 10 10 10 11 11 11 11 11 10 10 7 12 15 16 17 16 15 15 15 15 14 13 15
2 5 4 4 4 4 3 3 4 5 4 5 6 6 7 8 9 10 13 12 12 11 11 10 11 11 11 12 13 8 8 13 15 15 15 14 14 13 14 15 16 16 16
2 3 4 3 4 4 4 4 4 5 5 5 6 6 7 8 9 10 12 13 14 12 13 11 10 9 10 11 10 9 11 12 13 14 14 14 13 13 14 14 16 16 17
3 3 3 4 4 5 5 5 6 6 5 7 8 8 8 9 9 10 11 13 14 12 13 15 11 10 10 10 8 4 10 10 10 11 13 14 14 14 15 15 16 16 16
3 4 5 6 6 6 7 7 7 8 8 9 10 10 9 9 9 9 9 11 13 14 14 14 12 10 9 9 8 10 12 10 9 10 12 13 14 15 16 16 17 16 16
4 6 6 7 8 8 9 9 10 9 10 11 10 12 12 11 10 10 10 11 12 13 15 14 12 13 13 11 11 13 13 11 11 14 14 12 13 15 16 17 18 18 17
5 7 7 8 9 9 10 10 12 13 14 14 14 15 15 15 13 12 12 12 12 12 14 14 13 12 14 14 12 13 12 10 9 14 12 11 12 12 11 10 10 12 13
7 8 9 10 11 12 12 13 14 15 16 16 16 16 17 14 15 14 13 15 14 14 15 16 13 13 14 14 13 12 11 10 9 5 5 9 11 11 10 9 8 8 8
9 10 11 12 13 13 14 14 15 15 16 16 16 16 16 17 17 15 16 16 14 13 13 13 13 11 11 11 12 12 12 10 10 7 5 10 11 11 11 10 10 10 9
11 12 12 13 13 13 13 13 13 14 14 15 15 15 16 17 16 16 15 16 15 14 13 12 12 11 10 11 10 10 11 9 7 6 6 7 9 10 13 13 13 13 13
9 9 9 9 10 9 10 12 13 15 15 15 16 16 17 19 21 17 14 15 15 13 11 11 11 11 11 10 10 9 9 9 8 5 6 7 6 7 9 14 16 15 15
7 8 8 8 9 7 9 12 14 15 15 15 15 15 15 17 19 18 18 20 19 17 15 13 12 13 14 13 10 7 7 9 6 5 5 5 5 6 7 7 4 8 16
7 8 8 8 8 6 5 10 14 15 15 13 14 13 12 12 15 14 14 16 17 18 18 16 16 16 16 14 11 10 9 9 7 4 4 4 5 7 6 4 6 15 20
8 8 7 7 7 5 5 11 18 14 13 13 13 13 13 14 13 14 14 14 14 14 15 14 14 15 15 14 12 11 10 6 2 2 3 3 3 5 5 6 9 17 22
7 8 6 6 7 7 7 11 16 12 11 13 13 13 13 13 13 14 14 13 14 14 15 16 16 17 19 21 16 8 6 4 3 3 2 2 2 3 5 6 8 17 21
6 7 7 7 8 9 8 8 13 10 11 12 12 13 14 13 14 15 13 12 14 13 11 9 9 8 7 4 1 4 3 2 1 1 3 2 2 2 4 3 6 9 11
Wind_Direction
211 182 180 257 282 291 252 268 294 295 283 265 272 277 277 277 271 273 238 110 84 51 30 16 1 346 328 307 282 261 247 241 238 235 233 231 228 220 212 207 203 202 201
251 272 271 285 297 311 336 328 321 309 290 303 291 288 288 287 287 291 293 180 115 94 43 15 2 347 332 323 313 299 279 256 244 235 231 229 228 225 220 215 210 205 203
12 278 277 290 4 353 348 317 318 301 296 298 290 293 287 289 300 302 292 293 270 169 157 192 298 307 305 305 305 304 299 288 270 250 238 232 229 227 224 221 218 212 206
32 341 11 37 13 356 351 346 329 321 324 313 310 305 296 290 277 275 272 269 279 285 231 186 223 271 280 287 293 297 298 297 291 278 261 245 235 230 227 223 220 217 212
51 44 42 37 12 16 10 353 7 339 325 321 305 293 287 289 291 281 282 284 283 279 284 228 217 240 257 279 295 301 300 298 294 290 278 262 247 236 230 226 222 219 215
58 52 64 40 23 28 21 16 352 338 320 314 303 297 287 281 279 279 278 277 275 269 267 277 264 237 225 253 283 294 299 301 301 298 290 276 261 245 234 230 226 221 217
63 47 49 49 25 35 13 350 329 305 287 306 295 288 278 263 254 253 255 263 267 268 271 272 273 283 280 268 256 265 289 297 300 300 298 290 279 258 239 231 228 225 221
54 52 31 12 16 337 316 328 321 310 306 303 298 298 290 279 258 256 275 284 292 295 290 286 285 286 284 289 285 281 283 286 291 293 293 293 289 274 250 236 229 227 225
61 40 22 360 343 313 348 340 331 327 322 308 310 312 309 315 333 301 298 297 299 301 301 299 293 289 289 290 286 281 290 298 291 290 287 286 287 283 264 246 237 233 229
32 29 23 21 356 352 11 335 24 327 324 319 328 318 310 319 304 304 301 299 301 292 287 290 290 286 280 278 280 284 277 280 290 293 290 286 289 288 279 267 258 250 241
40 33 30 21 1 356 17 358 353 338 329 333 327 319 311 297 283 283 292 291 284 283 283 282 281 280 281 274 269 270 282 290 293 293 291 287 289 296 294 284 276 268 258
33 42 19 12 346 356 352 333 327 327 343 336 315 312 309 307 307 303 300 297 294 295 295 293 284 277 275 273 268 267 274 282 287 289 290 286 285 290 294 294 287 278 270
11 50 4 344 338 335 313 311 304 325 316 312 297 306 312 303 299 300 300 301 300 298 296 287 279 278 283 283 276 247 253 267 278 282 285 285 282 280 283 286 287 283 276
5 13 316 321 319 312 305 305 298 292 293 291 290 291 290 290 298 299 303 305 302 300 294 290 292 290 288 287 288 268 270 261 263 276 280 282 282 280 278 277 277 275 272
338 328 304 298 298 297 300 296 286 288 282 280 290 293 290 293 290 294 299 298 298 296 290 291 289 292 294 290 288 277 276 270 254 262 271 276 279 281 279 275 268 263 261
347 322 312 300 290 286 286 287 286 281 282 280 283 287 288 288 297 296 291 287 284 282 283 284 286 287 287 291 287 281 277 273 250 250 253 260 270 275 279 276 264 254 250
310 302 305 301 294 289 286 284 283 288 284 283 284 285 287 291 294 299 295 289 284 280 278 279 275 276 278 283 287 287 286 279 268 244 238 253 260 265 275 284 277 259 253
293 297 295 292 290 289 289 287 288 289 289 288 288 291 292 293 295 296 294 290 287 281 276 276 276 275 278 281 278 276 277 279 285 289 247 248 248 251 261 269 272 271 271
294 295 294 293 295 297 296 295 295 296 295 295 295 294 293 295 295 294 293 291 289 284 280 280 280 278 275 274 277 280 287 288 292 297 249 234 237 244 251 255 254 255 257
298 298 300 304 309 312 313 320 320 314 306 300 298 295 293 295 296 294 292 290 286 283 282 284 284 284 281 280 282 291 292 291 297 282 250 238 236 243 248 247 247 249 251
319 324 325 327 334 332 4 349 326 313 309 307 304 301 301 301 298 290 285 288 289 286 286 284 283 281 280 281 283 291 288 294 282 238 227 228 227 239 240 233 233 241 255
345 339 338 339 340 4 20 345 326 316 310 306 306 305 302 297 294 292 284 278 276 280 284 288 289 286 286 285 288 284 280 278 263 210 219 229 222 249 252 255 285 293 279
344 336 338 339 341 22 11 335 332 316 309 309 307 303 299 297 297 292 289 285 278 273 275 282 281 279 281 282 284 277 267 265 258 186 192 232 228 252 262 275 299 291 284
345 337 337 339 334 4 4 335 331 314 309 306 306 304 300 298 296 297 296 291 286 282 276 273 274 278 281 280 270 264 267 266 225 165 190 241 245 264 288 294 295 300 297
349 333 340 333 334 341 3 336 333 321 313 313 311 304 297 292 290 288 289 285 281 277 268 260 266 275 277 271 258 244 226 216 215 177 167 256 283 291 286 288 308 311 310
345 336 340 332 332 332 346 330 335 326 320 318 313 308 302 296 294 291 290 286 283 286 295 300 293 294 306 334 202 197 200 201 189 169 165 225 261 282 287 293 314 326 329